Overview Statistics Trail Chart Weather Telemetry Raw packets
 

This is the latest recevied weather packets stored in our database for station/object N3TJJ-2. If no packets are shown the sender has not sent any weather packets the latest 10 day(s).

<< 35 36 37 38 39 40 41 >>
Time Temp. Humidity Pressure Rain* Wind** Luminosity Snow
1788336050 20° C 30% 1018.8 hPa 0 mm - - -
1788335690 20° C 31% 1018.9 hPa 0 mm - - -
1788335340 20° C 31% 1018.8 hPa 0 mm - - -
1788334969 20° C 31% 1018.8 hPa 0 mm - - -
1788334608 20.56° C 31% 1018.8 hPa 0 mm - - -
1788334249 20° C 33% 1018.7 hPa 0 mm - - -
1788333888 20° C 34% 1018.6 hPa 0 mm - - -
1788333536 20.56° C 35% 1018.6 hPa 0 mm - - -
1788333178 20.56° C 33% 1018.4 hPa 0 mm - - -
1788332808 20.56° C 31% 1018.4 hPa 0 mm - - -
1788332481 20.56° C 31% 1018.2 hPa 0 mm - - -
1788332087 20.56° C 31% 1018.3 hPa 0 mm - - -
1788331739 20.56° C 32% 1018.2 hPa 0 mm - - -
1788331369 20.56° C 33% 1018.1 hPa 0 mm - - -
1788331008 21.11° C 32% 1018.1 hPa 0 mm - - -
1788330690 21.11° C 31% 1018.2 hPa 0 mm - - -
1788330288 20.56° C 30% 1018.1 hPa 0 mm - - -
1788329939 20.56° C 31% 1018.1 hPa 0 mm - - -
1788329584 20.56° C 32% 1018.1 hPa 0 mm - - -
1788329207 20.56° C 33% 1018.2 hPa 0 mm - - -
1788328883 20.56° C 34% 1018.3 hPa 0 mm - - -
1788328492 20.56° C 35% 1018.2 hPa 0 mm - - -
1788328156 21.11° C 35% 1018.1 hPa 0 mm - - -
1788327781 21.67° C 33% 1018 hPa 0 mm - - -
1788327408 21.11° C 33% 1017.9 hPa 0 mm - - -

* Rain latest hour (hover to see other rain measurements)
** Current wind speed in m/s (hover to see current wind gust speed)